FW7278 Weather Reports


Display with metric or nautical units.
time (UTC)temp
F
wind
direction
speed
MPH
gust
MPH
rain 1hr
in
rain 24hr
in
rain mn
in
humidity
%
barometer
mb
20260505063055 66 205 5.0 12.0 0.00 0.00 0.00 64 1007.2
20260505061604 66 192 6.0 15.0 0.00 0.00 0.00 64 1006.8
20260505060058 66 190 7.0 13.0 0.00 0.00 0.00 63 1006.9
20260505054601 67 188 6.0 12.0 0.00 0.00 0.00 63 1006.9
20260505053108 67 196 5.0 12.0 0.00 0.00 0.00 61 1006.8
20260505051552 68 196 8.0 19.0 0.00 0.00 0.00 61 1006.7
20260505041612 69 214 6.0 16.0 0.00 0.00 0.00 59 1007.0
20260505040057 69 178 6.0 15.0 0.00 0.00 0.00 58 1006.9
20260505034601 69 171 8.0 18.0 0.00 0.00 0.00 58 1006.9
20260505033056 69 205 6.0 11.0 0.00 0.00 0.00 58 1006.8
20260505031603 70 205 3.0 13.0 0.00 0.00 0.00 57 1006.7
20260505030057 70 159 4.0 17.0 0.00 0.00 0.00 57 1006.4
20260505024558 70 194 7.0 18.0 0.00 0.00 0.00 56 1006.3
20260505023103 71 185 7.0 16.0 0.00 0.00 0.00 56 1006.3
20260505021556 71 163 4.0 16.0 0.00 0.00 0.00 55 1006.1
20260505020059 71 187 5.0 13.0 0.00 0.00 0.00 54 1006.0
20260505014553 72 161 5.0 11.0 0.00 0.00 0.00 52 1005.8
20260505013056 73 201 5.0 17.0 0.00 0.00 0.00 51 1005.6
20260505011557 73 213 8.0 17.0 0.00 0.00 0.00 51 1005.5
20260505010054 74 178 8.0 17.0 0.00 0.00 0.00 49 1005.4
20260505004552 74 151 8.0 19.0 0.00 0.00 0.00 49 1005.2
20260505003055 75 217 9.0 19.0 0.00 0.00 0.00 48 1005.1
20260505001554 76 188 7.0 19.0 0.00 0.00 0.00 47 1005.0
20260504234624 77 200 9.0 26.0 0.00 0.00 0.00 45 1005.1
20260504233058 77 139 9.0 18.0 0.00 0.00 0.00 44 1005.2
20260504231602 78 194 9.0 24.0 0.00 0.00 0.00 43 1005.4
20260504230049 78 213 12.0 24.0 0.00 0.00 0.00 42 1005.5
20260504224549 79 152 9.0 24.0 0.00 0.00 0.00 42 1005.4
20260504223053 79 161 8.0 23.0 0.00 0.00 0.00 41 1005.6
20260504221558 80 194 10.0 21.0 0.00 0.00 0.00 38 1005.5
20260504220056 80 186 10.0 18.0 0.00 0.00 0.00 37 1005.5
20260504214551 79 171 7.0 19.0 0.00 0.00 0.00 37 1005.7
20260504213054 79 150 11.0 23.0 0.00 0.00 0.00 36 1005.5
20260504211553 79 196 8.0 24.0 0.00 0.00 0.00 37 1005.8
20260504210109 79 184 7.0 21.0 0.00 0.00 0.00 38 1006.1
20260504204601 79 198 8.0 17.0 0.00 0.00 0.00 37 1006.7
20260504203053 79 155 6.0 20.0 0.00 0.00 0.00 37 1007.2
20260504201554 79 174 8.0 25.0 0.00 0.00 0.00 35 1007.2
20260504200051 81 114 9.0 27.0 0.00 0.00 0.00 36 1006.9
20260504194609 81 204 9.0 23.0 0.00 0.00 0.00 36 1006.7
20260504193058 81 203 10.0 29.0 0.00 0.00 0.00 35 1006.6
20260504191558 81 217 13.0 33.0 0.00 0.00 0.00 37 1006.9
20260504190125 80 178 16.0 31.0 0.00 0.00 0.00 36 1006.8
20260504184558 80 150 14.0 29.0 0.00 0.00 0.00 35 1006.5
20260504183054 80 121 11.0 39.0 0.00 0.00 0.00 38 1006.3
20260504181603 80 221 13.0 34.0 0.00 0.00 0.00 38 1006.7
20260504180201 80 188 10.0 29.0 0.00 0.00 0.00 38 1007.0
20260504174558 79 192 10.0 21.0 0.00 0.00 0.00 40 1007.3
20260504173108 79 189 9.0 25.0 0.00 0.00 0.00 42 1007.8
20260504171559 78 164 11.0 20.0 0.00 0.00 0.00 43 1008.1
20260504140115 65 186 5.0 11.0 0.00 0.00 0.00 68 1009.9
20260504120111 60 165 3.0 7.0 0.00 0.00 0.00 75 1010.3
20260504081553 61 150 4.0 8.0 0.00 0.00 0.00 69 1009.7